Flag for U.S.A. Weather past 2 weeks in Avalon (Santa Catalina Island), California, U.S.A.

Now
74 °F

Sunny.


Feels Like: 77 °F
Forecast: 71 / 81 °F
Wind: 3 mph from North

Location: Catalina Airport

Current Time: Sep 30, 2014 at 9:40:15 AM

Latest Report: Sep 30, 2014 at 8:51 AM


Visibility: 10 mi

Pressure: 29.84 "Hg

Humidity: 37%

Dew point: 46 °F

Location of Avalon (Santa Catalina Island)Location

Historic Weather in Avalon (Santa Catalina Island) — Graph

°F

Avalon (Santa Catalina Island) temperature yesterday

Maximum temperature yesterday: 71 °F (at 3:51 PM)
Minimum temperature yesterday: 57 °F (at 12:51 AM)
Average temperature yesterday: 63 °F

Past Weeks' High & Low Weather Summary

 TemperatureHumidityPressure
High94 °F (Sep 16, 10:51 AM)97% (Sep 18, 7:51 AM)30.03 "Hg (Sep 18, 7:51 AM)
Low57 °F (Sep 27, 2:51 AM)7% (Sep 25, 3:51 AM)29.68 "Hg (Sep 16, 4:51 PM)
Average69 °F63%29.86 "Hg
* Reported Sep 15 7:51 AM — Sep 30 7:51 AM, Avalon (Santa Catalina Island), Weather by CustomWeather, © 2014

Note: Actual official high and low records may vary slightly from our data, if they occured in-between our weather recording intervals... More about our weather records

Advertising

Avalon (Santa Catalina Island) weather history for previous 24 hours

 ConditionsComfort  
Time TempWeatherWind HumidityBarometerVisibility
7:51 AM
Sep 30
72 °FSunny.3 mph38%29.84 "Hg10 mi
6:51 AM71 °FClear.6 mph36%29.83 "Hg10 mi
5:51 AM73 °FClear.5 mph33%29.82 "Hg10 mi
4:51 AM69 °FClear.3 mph47%29.83 "Hg10 mi
3:51 AM68 °FClear.3 mph53%29.83 "Hg10 mi
2:51 AM70 °FClear.6 mph47%29.84 "Hg10 mi
1:51 AM70 °FClear.5 mph49%29.84 "Hg10 mi
12:51 AM69 °FClear.6 mph51%29.85 "Hg10 mi
11:51 PM
Sep 29
69 °FClear.9 mph49%29.86 "Hg10 mi
10:51 PM68 °FClear.9 mph51%29.87 "Hg10 mi
9:51 PM66 °FClear.10 mph56%29.87 "Hg10 mi
8:51 PM66 °FClear.12 mph59%29.87 "Hg10 mi
7:51 PM63 °FClear.13 mph65%29.86 "Hg10 mi
6:51 PM62 °FSunny.12 mph75%29.87 "Hg10 mi
5:51 PM63 °FSunny.16 mph75%29.87 "Hg10 mi
4:51 PM64 °FSunny.16 mph75%29.87 "Hg10 mi
3:51 PM71 °FSunny.7 mph53%29.86 "Hg10 mi
2:51 PM68 °FSunny.9 mph65%29.88 "Hg10 mi
1:51 PM69 °FSunny.8 mph66%29.90 "Hg10 mi
12:51 PM67 °FSunny.8 mph68%29.92 "Hg10 mi
11:51 AM66 °FSunny.8 mph73%29.93 "Hg10 mi
10:51 AM66 °FSunny.7 mph73%29.93 "Hg10 mi
9:51 AM65 °FSunny.No wind78%29.94 "Hg10 mi
Weather by CustomWeather, © 2014

See weather overviewHow to use our weather pages